CW1734 Weather Reports


Display with metric or nautical units.
time (UTC)temp
F
wind
direction
speed
MPH
gust
MPH
rain 1hr
in
rain 24hr
in
rain mn
in
humidity
%
barometer
mb
20260503220403 53 227 2.0 7.0 0.00 0.00 0.00 89 1011.1
20260503215903 53 220 3.0 8.0 0.00 0.00 0.00 89 1011.1
20260503215403 53 247 3.0 5.0 0.00 0.00 0.00 90 1011.1
20260503214904 53 243 2.0 7.0 0.00 0.00 0.00 90 1011.1
20260503214403 53 225 5.0 8.0 0.00 0.00 0.00 90 1011.1
20260503213903 53 222 4.0 6.0 0.00 0.00 0.00 90 1011.1
20260503213403 53 243 2.0 5.0 0.00 0.00 0.00 90 1011.1
20260503212903 53 228 1.0 5.0 0.00 0.00 0.00 90 1011.0
20260503212403 53 223 2.0 5.0 0.00 0.00 0.00 90 1011.0
20260503211903 53 230 1.0 3.0 0.00 0.00 0.00 90 1010.8
20260503211404 53 249 1.0 2.0 0.00 0.00 0.00 90 1010.8
20260503210904 53 263 1.0 5.0 0.00 0.00 0.00 90 1010.8
20260503210403 53 246 1.0 3.0 0.00 0.00 0.00 90 1010.8
20260503205903 54 248 2.0 3.0 0.00 0.00 0.00 90 1010.5
20260503205403 54 258 0.0 0.0 0.00 0.00 0.00 90 1010.5
20260503204403 54 258 0.0 0.0 0.00 0.00 0.00 90 1010.5
20260503203904 54 258 0.0 0.0 0.00 0.00 0.00 90 1010.5
20260503203404 54 258 0.0 2.0 0.00 0.00 0.00 90 1010.5
20260503202903 54 226 0.0 5.0 0.00 0.00 0.00 90 1010.2
20260503202403 54 238 1.0 3.0 0.00 0.00 0.00 90 1010.2
20260503201903 54 234 2.0 3.0 0.00 0.00 0.00 90 1010.2
20260503201403 54 230 2.0 5.0 0.00 0.00 0.00 90 1010.2
20260503200903 54 239 2.0 6.0 0.00 0.00 0.00 90 1010.2
20260503195904 54 233 1.0 3.0 0.00 0.00 0.00 90 1010.2
20260503195403 54 196 2.0 6.0 0.00 0.00 0.00 89 1010.2
20260503194904 54 205 3.0 6.0 0.00 0.00 0.00 89 1010.2
20260503194404 54 220 3.0 7.0 0.00 0.00 0.00 89 1009.9
20260503193403 54 205 2.0 7.0 0.00 0.00 0.00 89 1009.9
20260503192903 54 190 3.0 6.0 0.00 0.00 0.00 89 1009.9
20260503191904 54 191 5.0 7.0 0.00 0.00 0.00 88 1009.9
20260503185903 55 225 2.0 5.0 0.00 0.00 0.00 87 1009.6
20260503185403 55 206 4.0 8.0 0.00 0.00 0.00 86 1009.6
20260503184903 56 196 3.0 8.0 0.00 0.00 0.00 86 1009.6
20260503184403 56 214 5.0 8.0 0.00 0.00 0.00 85 1009.6
20260503183903 56 196 2.0 7.0 0.00 0.00 0.00 85 1009.5
20260503183403 57 227 3.0 5.0 0.00 0.00 0.00 85 1009.5
20260503182903 57 232 2.0 7.0 0.00 0.00 0.00 85 1009.5
20260503182404 57 220 2.0 6.0 0.00 0.00 0.00 85 1009.5
20260503181903 57 189 4.0 8.0 0.00 0.00 0.00 84 1009.2
20260503181404 57 205 3.0 8.0 0.00 0.00 0.00 84 1009.2
20260503180903 57 203 5.0 8.0 0.00 0.00 0.00 83 1009.2
20260503180403 57 207 5.0 9.0 0.00 0.00 0.00 83 1009.2
20260503175903 58 181 4.0 8.0 0.00 0.00 0.00 82 1009.2
20260503174903 58 204 5.0 10.0 0.00 0.00 0.00 81 1009.2
20260503173403 59 220 5.0 8.0 0.00 0.00 0.00 79 1009.1
20260503172904 60 199 4.0 7.0 0.00 0.00 0.00 79 1009.1
20260503172404 60 208 5.0 10.0 0.00 0.00 0.00 79 1009.1
20260503171904 60 206 2.0 7.0 0.00 0.00 0.00 79 1009.1
20260503171403 59 215 4.0 9.0 0.00 0.00 0.00 78 1009.1
20260503170903 60 186 5.0 9.0 0.00 0.00 0.00 78 1009.1
20260503150904 62 228 4.0 9.0 0.00 0.00 0.00 75 1009.5
20260503131403 63 231 5.0 9.0 0.00 0.18 0.00 75 1009.9
20260503130903 63 210 5.0 9.0 0.00 0.18 0.00 74 1009.9
20260503130403 63 226 4.0 10.0 0.00 0.18 0.00 75 1009.9
20260503090403 57 295 3.0 7.0 0.00 0.18 0.00 87 1009.9
20260503081403 54 303 3.0 5.0 0.00 0.18 0.00 91 1009.8
20260503080903 55 280 3.0 5.0 0.00 0.18 0.00 92 1009.8
20260503080403 54 300 3.0 5.0 0.00 0.18 0.00 92 1009.8
20260503072903 54 202 2.0 3.0 0.00 0.18 0.00 93 1009.9
20260503072403 54 211 0.0 3.0 0.00 0.18 0.00 93 1009.9
20260503070903 53 234 0.0 2.0 0.00 0.18 0.00 94 1009.8
20260503070403 53 271 1.0 3.0 0.00 0.18 0.00 94 1009.8
20260503054403 52 187 1.0 3.0 0.00 0.18 0.00 94 1009.1
20260503053904 52 186 2.0 5.0 0.00 0.18 0.00 94 1009.1
20260503053403 52 178 0.0 3.0 0.00 0.18 0.00 94 1009.1
20260503052903 51 174 0.0 0.0 0.00 0.18 0.00 94 1009.1
20260503052403 51 174 0.0 0.0 0.00 0.18 0.00 94 1009.0
20260503051903 51 173 1.0 3.0 0.00 0.18 0.00 94 1009.0
20260503051403 52 170 2.0 2.0 0.00 0.18 0.00 94 1009.0
20260503050903 52 236 0.0 0.0 0.00 0.18 0.00 94 1009.1
20260503050403 52 267 0.0 0.0 0.00 0.18 0.00 94 1009.1
20260503045903 52 267 0.0 0.0 0.00 0.18 0.00 94 1009.1
20260503045403 52 267 0.0 1.0 0.00 0.18 0.00 94 1009.1
20260503044903 52 217 0.0 0.0 0.00 0.18 0.00 94 1009.1
20260503044403 52 221 0.0 0.0 0.00 0.18 0.00 94 1009.1
20260503043904 52 224 0.0 0.0 0.00 0.18 0.00 94 1009.1
20260503043403 52 256 0.0 0.0 0.00 0.18 0.00 94 1009.1
20260503042903 52 255 0.0 0.0 0.00 0.18 0.00 94 1009.1
20260503042404 52 278 0.0 0.0 0.00 0.18 0.00 94 1009.2
20260503041403 52 278 0.0 0.0 0.00 0.18 0.00 94 1009.2
20260503040903 52 278 0.0 0.0 0.00 0.18 0.00 94 1009.2
20260503040403 52 278 0.0 0.0 0.00 0.18 0.00 94 1009.2
20260503035903 52 278 0.0 0.0 0.00 0.18 0.00 94 1009.2
20260503035403 52 278 0.0 0.0 0.00 0.18 0.00 94 1009.2
20260503034903 52 278 0.0 0.0 0.00 0.18 0.00 94 1009.2
20260503034403 52 278 0.0 0.0 0.00 0.18 0.00 94 1009.2
20260503033904 52 278 0.0 0.0 0.00 0.18 0.00 94 1009.3
20260503033404 52 278 0.0 0.0 0.00 0.18 0.00 94 1009.3
20260503032904 52 278 0.0 0.0 0.00 0.18 0.00 94 1009.3
20260503032404 52 278 0.0 0.0 0.00 0.18 0.00 94 1009.3
20260503031903 52 278 0.0 0.0 0.00 0.18 0.00 94 1009.3
20260503031403 52 278 0.0 0.0 0.00 0.18 0.00 94 1009.3
20260503030903 52 278 0.0 0.0 0.00 0.18 0.00 94 1009.3
20260503030403 52 278 0.0 0.0 0.00 0.18 0.00 94 1009.3
20260503025903 52 285 1.0 3.0 0.00 0.18 0.00 94 1009.2
20260503025403 52 273 0.0 3.0 0.00 0.18 0.00 94 1009.2
20260503024903 53 272 0.0 0.0 0.00 0.18 0.00 94 1009.2
20260503024403 53 272 0.0 1.0 0.00 0.18 0.00 94 1009.2
20260503023903 53 272 0.0 3.0 0.00 0.18 0.00 94 1009.2
20260503023403 53 275 1.0 3.0 0.00 0.18 0.00 94 1009.2
20260503022403 53 273 0.0 0.0 0.00 0.18 0.00 94 1009.3
20260503021903 53 270 0.0 0.0 0.00 0.18 0.00 94 1009.3
20260503021404 53 270 0.0 0.0 0.00 0.18 0.00 94 1009.3
20260503020903 53 270 0.0 0.0 0.00 0.18 0.00 94 1009.3
20260503020403 53 272 0.0 0.0 0.00 0.18 0.00 94 1009.3
20260503015903 53 272 0.0 0.0 0.00 0.18 0.00 94 1009.3
20260503015404 53 272 0.0 0.0 0.00 0.18 0.00 94 1009.3
20260503014903 53 272 1.0 2.0 0.00 0.18 0.00 94 1009.5
20260503014403 53 273 1.0 2.0 0.00 0.18 0.00 94 1009.5
20260503013403 53 233 0.0 0.0 0.00 0.18 0.00 94 1009.5
20260503012903 53 235 0.0 0.0 0.00 0.18 0.00 94 1009.5
20260503012403 53 235 1.0 3.0 0.00 0.18 0.00 94 1009.5
20260503011903 53 266 1.0 3.0 0.00 0.18 0.00 94 1009.7
20260503011404 53 252 1.0 5.0 0.00 0.18 0.00 94 1009.7
20260503010903 53 277 1.0 5.0 0.00 0.18 0.00 94 1009.7
20260503010403 53 214 2.0 5.0 0.00 0.18 0.00 94 1009.7
20260503005903 53 280 3.0 5.0 0.00 0.18 0.00 94 1009.7
20260503005403 53 266 1.0 5.0 0.00 0.18 0.00 94 1009.7
20260503004903 53 273 2.0 6.0 0.00 0.18 0.00 94 1009.9
20260503004404 53 271 0.0 0.0 0.00 0.18 0.00 94 1009.9
20260503003403 53 221 0.0 3.0 0.00 0.18 0.00 94 1010.1
20260503002903 53 214 2.0 3.0 0.00 0.18 0.00 94 1010.1
20260503002403 53 218 2.0 3.0 0.00 0.18 0.00 94 1010.3
20260503001903 53 220 3.0 6.0 0.00 0.18 0.00 94 1010.3
20260503001403 53 221 1.0 5.0 0.00 0.18 0.00 94 1010.3
20260503000903 53 262 2.0 3.0 0.00 0.18 0.00 94 1010.3
20260503000403 53 250 0.0 5.0 0.00 0.18 0.00 94 1010.3
20260502235903 53 270 1.0 5.0 0.00 0.18 0.00 94 1010.3
20260502235403 53 270 2.0 6.0 0.00 0.18 0.00 94 1010.3
20260502234904 52 252 0.0 0.0 0.00 0.18 0.00 94 1010.3
20260502234403 52 226 0.0 0.0 0.00 0.18 0.00 94 1010.3
20260502233903 52 180 0.0 0.0 0.00 0.18 0.00 94 1010.3
20260502233403 51 180 0.0 0.0 0.00 0.18 0.00 94 1010.3
20260502232403 51 175 0.0 0.0 0.00 0.18 0.00 93 1010.3
20260502231904 51 171 0.0 0.0 0.00 0.18 0.00 94 1010.3
20260502231404 51 154 0.0 0.0 0.00 0.18 0.00 94 1010.5
20260502230403 51 191 0.0 0.0 0.00 0.18 0.00 94 1010.5
20260502225904 51 176 0.0 0.0 0.00 0.18 0.18 94 1010.5
20260502225404 51 195 0.0 3.0 0.00 0.18 0.18 94 1010.5
20260502224903 51 210 2.0 3.0 0.00 0.18 0.18 94 1010.5
20260502224403 50 168 1.0 3.0 0.00 0.18 0.18 94 1010.5
20260502223403 49 60 0.0 0.0 0.00 0.18 0.18 93 1010.5
20260502222904 49 60 0.0 0.0 0.00 0.18 0.18 93 1010.5
20260502221903 49 60 0.0 0.0 0.00 0.18 0.18 93 1010.5
20260502221403 49 60 0.0 0.0 0.00 0.18 0.18 93 1010.5
20260502220904 49 60 0.0 0.0 0.00 0.18 0.18 93 1010.5